Caldwell, ID

4:22 AM MDT on September 26, 2017 (GMT -0600)
Caldwell Industrial

Weather History for KEUL - April, 2014

Change the Weather History Date:

Saturday, April 26, 2014

  Actual Average (KBOI) Record (KBOI)
Temperature  
Mean Temperature 47 °F -  
Max Temperature 57 °F 61 °F 92 °F (1898)
Min Temperature 37 °F 37 °F 24 °F (1985)
Degree Days  
Heating Degree Days 18    
Moisture  
Dew Point 28 °F    
Average Humidity 50    
Maximum Humidity 70    
Minimum Humidity 31    
Precipitation  
Precipitation 0.00 in - - ()
Sea Level Pressure  
Sea Level Pressure 29.72 in    
Wind  
Wind Speed 12 mph (NW)    
Max Wind Speed 22 mph    
Max Gust Speed 28 mph    
Visibility 10 miles    
Events      
Averages and records for this station are not official NWS values.
T = Trace of Precipitation, MM = Missing Value Source: NWS Daily Summary

Daily Weather History Graph

Daily Weather History Graph

Search for Another Location

Airport or City:

Trip Planner

Search our weather history database for the weather conditions in past years. The results will help you decide how hot, cold, wet, or windy it might be!

Date:

Astronomy

Apr. 26, 2014 Rise Set
Actual Time 6:46 AM MDT 8:43 PM MDT
Civil Twilight 6:15 AM MDT 9:14 PM MDT
Nautical Twilight 5:37 AM MDT 9:52 PM MDT
Astronomical Twilight 4:56 AM MDT 10:33 PM MDT
Moon 5:18 AM MDT 6:12 PM MDT
Length of Visible Light 14h 58m
Length of Day
13h 57m
Waning Crescent, 8% of the Moon is Illuminated
Apr 26
Waning Crescent
Apr 29
New
May 6
First Quarter
May 14
Full
May 21
Last Quarter

Hourly Weather History & Observations

Time (MDT) Temp. Windchill Dew Point Humidity Pressure Visibility Wind Dir Wind Speed Gust Speed Precip Events Conditions
12:15 AM 42.8 °F 37.5 °F 30.2 °F 61% 29.68 in 10.0 mi WNW 9.2 mph - N/A   Clear
12:55 AM 41.0 °F 34.3 °F 30.2 °F 65% 29.65 in 10.0 mi NW 11.5 mph - N/A   Clear
1:15 AM 39.2 °F 33.0 °F 30.2 °F 70% 29.68 in 10.0 mi WNW 9.2 mph - N/A   Clear
1:35 AM 39.2 °F 32.5 °F 28.4 °F 65% 29.68 in 10.0 mi WNW 10.4 mph - N/A   Clear
1:55 AM 39.2 °F 33.0 °F 30.2 °F 70% 29.69 in 10.0 mi West 9.2 mph - N/A   Clear
2:15 AM 39.2 °F 33.0 °F 30.2 °F 70% 29.69 in 10.0 mi West 9.2 mph - N/A   Clear
2:35 AM 39.2 °F 33.0 °F 30.2 °F 70% 29.68 in 10.0 mi WNW 9.2 mph - N/A   Clear
2:55 AM 39.2 °F 32.5 °F 30.2 °F 70% 29.68 in 10.0 mi WNW 10.4 mph - N/A   Clear
3:15 AM 39.2 °F 32.0 °F 28.4 °F 65% 29.69 in 10.0 mi WNW 11.5 mph - N/A   Clear
3:35 AM 39.2 °F 31.2 °F 28.4 °F 65% 29.69 in 10.0 mi WNW 13.8 mph - N/A   Clear
3:55 AM 39.2 °F 30.8 °F 28.4 °F 65% 29.69 in 10.0 mi WNW 15.0 mph - N/A   Clear
4:15 AM 39.2 °F 30.5 °F 28.4 °F 65% 29.69 in 10.0 mi WNW 16.1 mph - N/A   Clear
4:35 AM 39.2 °F 31.2 °F 28.4 °F 65% 29.69 in 10.0 mi WNW 13.8 mph - N/A   Clear
4:55 AM 39.2 °F 31.2 °F 28.4 °F 65% 29.70 in 10.0 mi WNW 13.8 mph - N/A   Clear
5:15 AM 39.2 °F 31.2 °F 26.6 °F 61% 29.69 in 10.0 mi WNW 13.8 mph - N/A   Clear
5:55 AM 39.2 °F 32.5 °F 26.6 °F 61% 29.70 in 10.0 mi WNW 10.4 mph - N/A   Clear
6:15 AM 37.4 °F 30.3 °F 26.6 °F 65% 29.70 in 10.0 mi WNW 10.4 mph - N/A   Clear
6:35 AM 37.4 °F 29.8 °F 26.6 °F 65% 29.70 in 10.0 mi WNW 11.5 mph - N/A   Mostly Cloudy
6:55 AM 37.4 °F 30.3 °F 26.6 °F 65% 29.71 in 10.0 mi WNW 10.4 mph - N/A   Scattered Clouds
7:15 AM 37.4 °F 31.4 °F 26.6 °F 65% 29.71 in 10.0 mi WNW 8.1 mph - N/A   Clear
7:35 AM 37.4 °F 29.8 °F 26.6 °F 65% 29.71 in 10.0 mi NW 11.5 mph - N/A   Clear
7:55 AM 39.2 °F 33.0 °F 26.6 °F 61% 29.71 in 10.0 mi WNW 9.2 mph - N/A   Clear
8:15 AM 39.2 °F 31.6 °F 26.6 °F 61% 29.71 in 10.0 mi WNW 12.7 mph - N/A   Clear
8:35 AM 41.0 °F 33.5 °F 28.4 °F 61% 29.72 in 10.0 mi WNW 13.8 mph - N/A   Clear
8:55 AM 42.8 °F 35.1 °F 28.4 °F 57% 29.72 in 10.0 mi WNW 16.1 mph - N/A   Clear
9:15 AM 41.0 °F 33.1 °F 26.6 °F 57% 29.73 in 10.0 mi WNW 15.0 mph - N/A   Clear
9:35 AM 41.0 °F 33.9 °F 28.4 °F 61% 29.73 in 10.0 mi WNW 12.7 mph - N/A   Clear
9:55 AM 44.6 °F 36.6 °F 28.4 °F 53% 29.73 in 10.0 mi NW 19.6 mph 26.5 mph N/A   Clear
10:15 AM 46.4 °F 38.5 °F 30.2 °F 53% 29.73 in 10.0 mi NW 21.9 mph 27.6 mph N/A   Clear
10:35 AM 46.4 °F 39.0 °F 30.2 °F 53% 29.73 in 10.0 mi WNW 19.6 mph 25.3 mph N/A   Clear
10:55 AM 48.2 °F - 30.2 °F 50% 29.73 in 10.0 mi NW 19.6 mph 24.2 mph N/A   Clear
11:15 AM 48.2 °F - 30.2 °F 50% 29.73 in 10.0 mi WNW 20.7 mph 26.5 mph N/A   Clear
11:35 AM 50.0 °F - 30.2 °F 47% 29.73 in 10.0 mi WNW 15.0 mph 24.2 mph N/A   Clear
11:55 AM 51.8 °F - 30.2 °F 44% 29.73 in 10.0 mi WNW 17.3 mph 24.2 mph N/A   Clear
12:15 PM 51.8 °F - 30.2 °F 44% 29.73 in 10.0 mi NW 17.3 mph 25.3 mph N/A   Clear
12:35 PM 51.8 °F - 30.2 °F 44% 29.73 in 10.0 mi WNW 13.8 mph 23.0 mph N/A   Partly Cloudy
12:55 PM 53.6 °F - 30.2 °F 41% 29.72 in 10.0 mi WNW 15.0 mph 23.0 mph N/A   Clear
1:15 PM 53.6 °F - 30.2 °F 41% 29.71 in 10.0 mi NW 13.8 mph 23.0 mph N/A   Partly Cloudy
1:35 PM 53.6 °F - 30.2 °F 41% 29.71 in 10.0 mi WNW 20.7 mph 27.6 mph N/A   Mostly Cloudy
1:55 PM 55.4 °F - 28.4 °F 36% 29.71 in 10.0 mi WNW 16.1 mph 24.2 mph N/A   Partly Cloudy
2:15 PM 53.6 °F - 28.4 °F 38% 29.71 in 10.0 mi WNW 16.1 mph 21.9 mph N/A   Scattered Clouds
2:35 PM 53.6 °F - 28.4 °F 38% 29.71 in 10.0 mi NW 15.0 mph - N/A   Scattered Clouds
2:55 PM 55.4 °F - 30.2 °F 38% 29.71 in 10.0 mi NW 15.0 mph 23.0 mph N/A   Scattered Clouds
3:15 PM 55.4 °F - 28.4 °F 36% 29.71 in 10.0 mi WNW 15.0 mph 21.9 mph N/A   Scattered Clouds
3:35 PM 57.2 °F - 28.4 °F 33% 29.72 in 10.0 mi WNW 17.3 mph 25.3 mph N/A   Mostly Cloudy
3:55 PM 57.2 °F - 28.4 °F 33% 29.72 in 10.0 mi West 16.1 mph 23.0 mph N/A   Scattered Clouds
4:15 PM 55.4 °F - 26.6 °F 33% 29.72 in 10.0 mi NW 15.0 mph 23.0 mph N/A   Mostly Cloudy
4:35 PM 57.2 °F - 28.4 °F 33% 29.72 in 10.0 mi NW 13.8 mph - N/A   Scattered Clouds
4:55 PM 55.4 °F - 26.6 °F 33% 29.72 in 10.0 mi NW 13.8 mph 19.6 mph N/A   Clear
5:15 PM 55.4 °F - 26.6 °F 33% 29.73 in 10.0 mi WNW 12.7 mph - N/A   Mostly Cloudy
5:35 PM 53.6 °F - 24.8 °F 33% 29.73 in 10.0 mi WSW 12.7 mph 19.6 mph N/A   Mostly Cloudy
5:55 PM 53.6 °F - 26.6 °F 35% 29.73 in 10.0 mi WNW 10.4 mph 16.1 mph N/A   Mostly Cloudy
6:15 PM 53.6 °F - 24.8 °F 33% 29.73 in 10.0 mi NW 17.3 mph - N/A   Mostly Cloudy
6:35 PM 55.4 °F - 24.8 °F 31% 29.73 in 10.0 mi NW 13.8 mph - N/A   Scattered Clouds
6:55 PM 55.4 °F - 24.8 °F 31% 29.73 in 10.0 mi NW 8.1 mph - N/A   Clear
7:15 PM 53.6 °F - 24.8 °F 33% 29.73 in 10.0 mi NNW 9.2 mph - N/A   Clear
7:35 PM 53.6 °F - 24.8 °F 33% 29.73 in 10.0 mi North 12.7 mph 16.1 mph N/A   Clear
7:55 PM 53.6 °F - 26.6 °F 35% 29.73 in 10.0 mi North 9.2 mph - N/A   Clear
8:15 PM 51.8 °F - 28.4 °F 41% 29.74 in 10.0 mi North 8.1 mph - N/A   Clear
8:35 PM 48.2 °F - 28.4 °F 46% 29.74 in 10.0 mi North 5.8 mph - N/A   Clear
8:55 PM 48.2 °F - 26.6 °F 43% 29.75 in 10.0 mi North 3.5 mph - N/A   Clear
9:15 PM 48.2 °F - 26.6 °F 43% 29.75 in 10.0 mi North 4.6 mph - N/A   Clear
9:35 PM 48.2 °F - 26.6 °F 43% 29.76 in 10.0 mi NNW 4.6 mph - N/A   Clear
9:55 PM 46.4 °F 45.2 °F 26.6 °F 46% 29.77 in 10.0 mi NNW 3.5 mph - N/A   Clear
10:15 PM 44.6 °F 40.7 °F 26.6 °F 49% 29.78 in 10.0 mi WSW 6.9 mph - N/A   Partly Cloudy
10:35 PM 42.8 °F 38.0 °F 26.6 °F 53% 29.79 in 10.0 mi West 8.1 mph - N/A   Partly Cloudy
10:55 PM 42.8 °F 38.6 °F 26.6 °F 53% 29.79 in 10.0 mi WNW 6.9 mph - N/A   Clear
11:15 PM 44.6 °F 41.4 °F 26.6 °F 49% 29.79 in 10.0 mi NNW 5.8 mph - N/A   Clear
11:35 PM 42.8 °F 41.1 °F 26.6 °F 53% 29.79 in 10.0 mi NNW 3.5 mph - N/A   Clear
11:55 PM 41.0 °F - 24.8 °F 53% 29.79 in 10.0 mi Calm Calm - N/A   Clear